Starlink 3941

operational
NORAD ID: 52638 Int'l Des: 2022-052 Owner: SPXS Country: US Constellation: starlink
LEOCIRCULAR

Starlink 3941について

説明を読み込み中...

リアルタイム位置

3D地球を読み込み中...

次回通過

高度履歴

Altitude vs Time

uPlot chart will show altitude changes over time

軌道要素

1 52638U 22052AS 26062.07687992 -.00000675 00000-0 -24345-4 0 9991
2 52638 53.2172 298.8094 0001415 89.3488 270.7666 15.08838824210809
Epoch: Mar 3, 2026 • Age: 29 hours

現在のステータス

高度 539.7 km
速度 7.60 km/s
衛星直下点 14.99°N, 68.94°E
打ち上げ日 May 14, 2022
運用期間 3.8 years
タイプ internet

技術仕様

分類 Payload
質量 297.00 kg
乾燥質量 275.00 kg
総質量 297.00 kg
長さ 0.20 m
直径 2.80 m
スパン 9.00 m
形状 Box + pan
製造者 SPXS
バスタイプ Starlink
フェーズステータス In Orbit
所有者/国 SPXS/US

大規模コンステレーション

Loading constellations...